Weather observations for the past three days for
Fort Yukon, Fort Yukon Airport
Imperial (Metric)
Date Time (akdt) Wind (mph) Vis. (mi.) Weather Sky Cond. Temperature (ºF) Relative Humidity Wind Chill (°F) Heat Index (°F) Pressure Precipitation (in)
Air Dwpt 6 hour altimeter (in) sea level (mb) 1 hr 3 hr 6 hr
Max. Min.
17 02:56 Calm 10.00 Mostly Cloudy BKN090 46 46 100% 29.8 1009.9
17 01:56 Calm 10.00 Partly Cloudy SCT080 48 48 100% 29.8 1009.8
17 00:56 Calm 10.00 Fair CLR 48.9 48 97% 29.79 1009.5
16 23:56 Calm 10.00 Fair CLR 50 48.9 96% 29.8 1009.8
16 22:56 Calm 10.00 Fair CLR 54 52 93% 29.79 1009.5
16 21:56 Calm 10.00 Fair CLR 55 52 66.9 53.1 90% 29.79 1009.5 0.03 0.22
16 20:56 Vrbl 3 10.00 Fair CLR 55 51.1 87% 29.8 1009.8 0.06
16 19:56 E 5 10.00 Light Rain SCT060 BKN080 OVC110 53.1 50 89% 29.8 1009.9 0.08
16 18:56 Calm 3.00 Rain Fog/Mist OVC060 53.1 51.1 93% 29.81 1010.4 0.05 0.05
16 17:56 Vrbl 5 10.00 Light Rain FEW035 SCT048 OVC060 61 48 63% 29.8 1010.0
16 16:56 Calm 10.00 Overcast BKN095 OVC120 66 45 47% 29.78 1009.2
16 15:56 Vrbl 3 10.00 Fair CLR 66.9 44.1 68 60.1 44% 29.78 1009.4 0.04 0.04
16 14:56 Calm 10.00 Fair CLR 66 43 43% 29.79 1009.7
16 13:56 Calm 10.00 A Few Clouds FEW110 66 43 43% 29.8 1009.8
16 12:56 Calm 10.00 Fair CLR 66 42.1 42% 29.8 1010.1
16 11:56 W 3 10.00 Mostly Cloudy BKN060 64 43 46% 29.81 1010.3
16 10:56 Calm 10.00 Fair CLR 63 41 45% 29.82 1010.6
16 09:56 Vrbl 3 10.00 Partly Cloudy SCT060 60.1 44.1 60.1 44.1 56% 29.82 1010.7
16 08:56 Calm 10.00 Overcast OVC060 57.9 46 65% 29.82 1010.5
16 07:56 Calm 10.00 Mostly Cloudy BKN060 57.9 45 62% 29.81 1010.4
16 06:56 W 3 10.00 Mostly Cloudy SCT060 BKN100 54 46 75% 29.81 1010.3
16 05:56 Calm 10.00 Overcast BKN060 OVC090 54 46.9 77% 29.81 1010.3
16 04:56 Calm 10.00 Mostly Cloudy SCT080 BKN095 48 44.1 86% 29.8 1009.9
16 03:56 Calm 10.00 A Few Clouds FEW080 44.1 42.1 62.1 44.1 93% 29.8 1009.9
16 02:56 Calm 10.00 Fair CLR 44.1 42.1 93% 29.79 1009.6
16 01:56 Calm 10.00 Fair CLR 46 43 89% 29.78 1009.2
16 00:56 Calm 10.00 Fair CLR 48 45 89% 29.77 1008.9
15 23:56 Calm 10.00 Fair CLR 53.1 46 77% 29.76 1008.6
15 22:56 W 3 10.00 Fair CLR 59 45 60% 29.75 1008.2
15 21:56 W 5 10.00 Fair CLR 62.1 42.1 66.9 62.1 48% 29.74 1008.0
15 20:56 Vrbl 6 10.00 Fair CLR 64.9 41 42% 29.74 1007.8
15 19:56 W 6 10.00 Fair CLR 66 39.9 39% 29.74 1007.8
15 18:56 W 7 10.00 A Few Clouds FEW070 66 39.9 39% 29.75 1008.1
15 17:56 W 8 10.00 Fair CLR 66 42.1 42% 29.75 1008.1
15 16:56 W 7 10.00 A Few Clouds FEW070 66 44.1 45% 29.75 1008.2
15 15:56 W 7 10.00 A Few Clouds FEW060 FEW120 64.9 44.1 64.9 57.9 47% 29.75 1008.1
15 14:56 W 7 10.00 Mostly Cloudy FEW060 BKN100 62.1 44.1 52% 29.75 1008.2
15 13:56 W 7 10.00 Partly Cloudy FEW050 SCT100 61 44.1 54% 29.75 1008.3
15 12:56 SW 8 10.00 Mostly Cloudy SCT100 BKN110 59 45 60% 29.75 1008.2
15 11:56 SW 7 10.00 Mostly Cloudy SCT080 BKN100 59 46.9 64% 29.74 1008.0
15 10:56 SW 8 10.00 Partly Cloudy FEW080 SCT100 59 46 62% 29.74 1007.6
15 09:56 SW 12 G 17 10.00 A Few Clouds FEW080 FEW100 60.1 46 61 50 60% 29.72 1007.2
15 07:56 SW 9 10.00 A Few Clouds FEW080 59 48 67% 29.68 1005.7
15 06:56 W 6 10.00 Fair CLR 57 50 78% 29.66 1005.2
15 05:56 Calm 10.00 Fair CLR 55 51.1 87% 29.63 1004.4
15 04:56 Calm 10.00 Fair CLR 53.1 51.1 93% 29.61 1003.4
15 03:56 Calm 10.00 Fair CLR 50 48.9 62.1 50 96% 29.6 1003.1
15 02:56 Calm 10.00 Overcast OVC080 52 51.1 97% 29.58 1002.4
15 01:56 Calm 10.00 Partly Cloudy SCT060 52 51.1 97% 29.57 1002.0
15 00:56 Calm 10.00 Overcast OVC100 55.9 53.1 90% 29.56 1001.7
14 23:56 Calm 10.00 Fair CLR 54 52 93% 29.53 1000.7
14 22:56 Calm 10.00 Fair CLR 59 53.1 81% 29.51 1000.1
14 21:56 Calm 10.00 Mostly Cloudy FEW060 BKN100 62.1 54 66 62.1 75% 29.5 999.8
14 20:56 Calm 10.00 Overcast SCT065 BKN075 OVC100 64 57 78% 29.5 999.5
14 19:56 Calm 10.00 Overcast BKN060 OVC090 66 55.9 70% 29.49 999.4
14 18:56 Calm 10.00 Mostly Cloudy BKN060 64.9 55 70% 29.5 999.5
14 17:56 Calm 10.00 Mostly Cloudy BKN065 BKN100 64.9 55 70% 29.49 999.4
14 16:56 Calm 10.00 Mostly Cloudy BKN019 BKN025 BKN070 64 57 78% 29.5 999.7
14 15:56 Calm 10.00 Mostly Cloudy SCT015 BKN075 64 57 64 59 78% 29.5 999.5 0.08
14 14:56 Calm 10.00 Mostly Cloudy FEW012 BKN070 BKN085 63 57.9 84% 29.49 999.3
14 13:56 Calm 10.00 Light Rain SCT007 BKN033 OVC060 60.1 57.9 93% 29.48 999.2 0.02
14 12:56 Vrbl 3 10.00 Light Rain SCT008 SCT013 OVC020 59 57 93% 29.48 999.1 0.03 0.06
14 11:56 Vrbl 3 9.00 Light Rain FEW011 OVC070 60.1 57.9 93% 29.47 998.6 0.03
14 10:56 Calm 10.00 Light Rain OVC085 61 57 87% 29.45 998.1
14 09:56 Calm 10.00 Overcast OVC070 62.1 55 62.1 60.1 78% 29.43 997.3
14 08:56 Calm 10.00 Overcast OVC075 62.1 53.1 73% 29.41 996.5
14 07:56 Calm 10.00 Light Rain OVC085 61 53.1 75% 29.4 996.2
14 06:56 Calm 10.00 Overcast OVC080 61 52 72% 29.39 995.9
14 05:56 Calm 9.00 Overcast OVC090 61 50 67% 29.39 995.7
14 04:56 Calm 10.00 Overcast OVC095 61 50 67% 29.38 995.6
14 03:56 Vrbl 3 10.00 Overcast OVC090 61 50 68 61 67% 29.39 995.9
Date Time (akdt) Wind (mph) Vis. (mi.) Weather Sky Cond. Air Dwpt Max. Min. Relative Humidity Wind Chill (°F) Heat Index (°F) altimeter (in) sea level (mb) 1 hr 3 hr 6 hr
6 hour
Temperature (ºF) Pressure Precipitation (in)